Regional Weather Roundup
Issued by NWS Bismarck, ND

Home | Current Version | Previous Version | Text Only | Print | Product List | Glossary On
Versions: 1 2 3 4 5 6 7 8 9 10 11 12 13 14 15 16 17 18 19 20 21 22 23 24 25 26 27 28 29 30 31 32 33 34 35 36 37 38 39 40 41 42 43 44 45 46 47 48 49 50
000
ASUS43 KBIS 190301
RWRBIS

NWR BROADCAST TEXT
NATIONAL WEATHER SERVICE BISMARCK ND
1000 PM CDT SAT APR 18 2015

NOTE: "FAIR" INDICATES FEW OR NO CLOUDS BELOW 12,000 FEET WITH NO
SIGNIFICANT WEATHER AND/OR OBSTRUCTIONS TO VISIBILITY.


CITY           SKY/WX    TMP DP  RH WIND       PRES   REMARKS
WILLISTON      MOCLDY    50  26  39 NW22G31   30.02R
MINOT          LGT RAIN  49  45  86 SW6       29.93R
MINOT AFB      LGT RAIN  48  48 100 SW5       29.92R
BISMARCK       CLOUDY    49  44  83 W7        29.93S
DICKINSON      LGT RAIN  48  42  80 N7        29.97R
GARRISON         N/A     48  46  93 N14       29.93R
HETTINGER ARPT RAIN      47  44  90 N9        29.97R FOG
JAMESTOWN      CLOUDY    61  32  33 W13       29.84F
CARRINGTON     FAIR      54  32  43 W7G17     29.89R
HAZEN          LGT RAIN  48  46  93 NW10      29.95R
OAKES            N/A     54  36  50 S6        29.81F
RUGBY            N/A    N/A N/A N/A NW9       29.87
STANLEY        CLOUDY    48  32  53 NW18G26   29.97R
$$

CITY           SKY/WX    TMP DP  RH WIND       PRES   REMARKS
GRAND FORKS    CLOUDY    55  33  43 CALM      29.83F
GRAND FORKS AF CLEAR     59  29  31 SE7       29.83F
DEVILS LAKE    CLOUDY    55  32  41 W10       29.85F
FARGO          CLOUDY    65  31  28 SE14      29.83F
CANDO          FAIR      57  32  38 SW17G25   29.85F
CAVALIER       FAIR      55  32  41 S5        29.83F
GRAFTON        FAIR      54  32  43 S8        29.85S
GWINNER        CLEAR     63  34  34 SE14      29.81F
LANGDON        FAIR      55  30  38 SW10      29.85S
ROLLA          FAIR      50  37  62 N12       29.87S
WALHALLA       FAIR      57  30  35 S10       29.83F
$$

CITY           SKY/WX    TMP DP  RH WIND       PRES   REMARKS
ABERDEEN       CLOUDY    54  51  90 NW8       29.82F
MOBRIDGE       LGT RAIN  49  45  86 N14       29.86S
BUFFALO          N/A     48  40  73 N18       29.93R
RAPID CITY     LGT RAIN  45  44  97 NW17      29.96S
GLASGOW        CLEAR     47  17  30 NW17      30.12R
SIDNEY         PTCLDY    48  27  43 NW9       30.04R
WOLF POINT     MOCLDY    48  23  37 N10       30.09R
GLENDIVE       PTCLDY    48  25  40 NW10      30.07R
MILES CITY     MOCLDY    47  28  47 NW13      30.11R
BAKER          MOCLDY    49  28  44 NW21      30.05R
$$

CITY           SKY/WX    TMP DP  RH WIND       PRES   REMARKS
BILLINGS       PTCLDY    42  27  55 N10       30.21R
GREAT FALLS    CLOUDY    42  29  59 CALM      30.26R
$$




USA.gov is the U.S. government's official web portal to all federal, state and local government web resources and services.